Weather History for Holland, MI

Change the Weather History Date:

Wednesday, January 2, 2013

  Actual Average Record
Temperature  
Mean Temperature 25 °F 27 °F  
Max Temperature 29 °F 33 °F 59 °F (2004)
Min Temperature 21 °F 22 °F -2 °F (2014)
Degree Days  
Heating Degree Days 40 38  
Month to date heating degree days 79 75  
Since 1 July heating degree days 2183 2343  
Cooling Degree Days 0 0  
Month to date cooling degree days 0 0  
Year to date cooling degree days 0 0  
Moisture  
Dew Point 16 °F    
Average Humidity 68    
Maximum Humidity 75    
Minimum Humidity 60    
Precipitation  
Precipitation 0.00 in 0.08 in 0.90 in (1965)
Month to date precipitation T 0.16  
Year to date precipitation T 0.16  
Sea Level Pressure  
Sea Level Pressure 30.15 in    
Wind  
Wind Speed 8 mph (SW)    
Max Wind Speed 16 mph    
Max Gust Speed 20 mph    
Visibility 10 miles    
Events      
T = Trace of Precipitation, MM = Missing Value Source: NWS Daily Summary

Daily Weather History Graph

Daily Weather History Graph

Search for Another Location

Airport:

Trip Planner

Search our weather history database for the weather conditions in past years. The results will help you decide how hot, cold, wet, or windy it might be!

Date:

Astronomy

Jan. 02, 2013 Rise Set
Actual Time 8:14 AM EST 5:22 PM EST
Civil Twilight 7:42 AM EST 5:54 PM EST
Nautical Twilight 7:07 AM EST 6:29 PM EST
Astronomical Twilight 6:33 AM EST 7:04 PM EST
Moon 11:02 PM EST (1/2) 10:48 AM EST (1/2)
Length of Visible Light 10h 11m
Length of Day
9h 07m
Waning Gibbous, 75% of the Moon is Illuminated
Jan 2
Waning Gibbous
Jan 4
Last Quarter
Jan 11
New
Jan 18
First Quarter
Jan 26
Full

Hourly Weather History & Observations

Time (EST) Temp. Windchill Dew Point Humidity Pressure Visibility Wind Dir Wind Speed Gust Speed Precip Events Conditions
12:53 AM 25.0 °F 16.3 °F 14.0 °F 63% 30.12 in 10.0 mi WNW 8.1 mph - N/A   Overcast
1:53 AM 25.0 °F 16.3 °F 14.0 °F 63% 30.12 in 10.0 mi West 8.1 mph 16.1 mph N/A   Overcast
2:53 AM 25.0 °F 18.1 °F 16.0 °F 69% 30.13 in 10.0 mi West 5.8 mph - N/A   Overcast
3:53 AM 27.0 °F 18.7 °F 16.0 °F 63% 30.14 in 10.0 mi West 8.1 mph - N/A   Overcast
4:53 AM 26.1 °F 16.8 °F 17.1 °F 69% 30.13 in 10.0 mi WNW 9.2 mph 18.4 mph N/A   Overcast
5:53 AM 26.1 °F 16.8 °F 16.0 °F 66% 30.14 in 10.0 mi West 9.2 mph - N/A   Overcast
7:53 AM 27.0 °F 19.5 °F 17.1 °F 66% 30.15 in 10.0 mi WNW 6.9 mph - N/A   Overcast
8:53 AM 27.0 °F 19.5 °F 19.0 °F 72% 30.15 in 10.0 mi West 6.9 mph - N/A   Overcast
10:53 AM 28.0 °F 19.3 °F 19.9 °F 72% 30.19 in 10.0 mi West 9.2 mph - N/A   Overcast
11:53 AM 27.0 °F 17.3 °F 19.9 °F 75% 30.19 in 10.0 mi West 10.4 mph - N/A   Overcast
12:53 PM 27.0 °F 18.7 °F 19.9 °F 75% 30.17 in 10.0 mi West 8.1 mph - N/A   Overcast
1:53 PM 28.0 °F 20.8 °F 21.0 °F 75% 30.15 in 10.0 mi WSW 6.9 mph - N/A   Overcast
2:04 PM 28.4 °F 21.2 °F 19.4 °F 69% 30.11 in 10.0 mi West 6.9 mph - N/A   Overcast
2:53 PM 28.0 °F 20.0 °F 21.0 °F 75% 30.14 in 10.0 mi WSW 8.1 mph - N/A   Overcast
3:53 PM 28.9 °F 21.9 °F 19.9 °F 69% 30.15 in 10.0 mi SW 6.9 mph - N/A   Overcast
4:53 PM 28.0 °F 21.7 °F 19.9 °F 72% 30.15 in 10.0 mi South 5.8 mph - N/A   Overcast
6:53 PM 27.0 °F 15.6 °F 18.0 °F 69% 30.17 in 10.0 mi South 13.8 mph - N/A   Overcast
7:53 PM 24.1 °F 16.0 °F 14.0 °F 65% 30.17 in 10.0 mi South 6.9 mph - N/A   Mostly Cloudy
8:05 PM 24.8 °F 16.9 °F 12.2 °F 59% 30.14 in 10.0 mi South 6.9 mph - N/A   Scattered Clouds
8:53 PM 21.9 °F 12.5 °F 12.0 °F 66% 30.17 in 10.0 mi South 8.1 mph - N/A   Clear
9:49 PM 21.2 °F 12.6 °F 12.2 °F 68% 30.13 in 10.0 mi SSE 6.9 mph - N/A   Mostly Cloudy
9:53 PM 21.0 °F 12.4 °F 12.0 °F 68% 30.16 in 10.0 mi SSE 6.9 mph - N/A   Mostly Cloudy
10:53 PM 21.0 °F 9.9 °F 10.9 °F 65% 30.14 in 10.0 mi SSE 10.4 mph - N/A   Overcast
11:53 PM 21.0 °F 9.9 °F 10.0 °F 63% 30.14 in 10.0 mi SSE 10.4 mph - N/A   Overcast